www.pogodaiklimat.ru
ПОГОДА в Луангнамтха

Архив погоды в Луангнамтха (Лаос)

Время
(UTC), дата
03 26.02
06 26.02
09 26.02
12 26.02
00 27.02
03 27.02
06 27.02
09 27.02
12 27.02
00 28.02
03 28.02
06 28.02
09 28.02
12 28.02
00 29.02
03 29.02
06 29.02
09 29.02
12 29.02
00 1.03
03 1.03
06 1.03
09 1.03
12 1.03
00 2.03
03 2.03
06 2.03
09 2.03
12 2.03
00 3.03
03 3.03
06 3.03
09 3.03
12 3.03
00 4.03
Ветер
(напр.,м/с)
Видим. Явления Облачность Т
(С)
Тd
(С)
f
(%)
Тe
(С)
Тes
(С)
Комфортность P
(гПа)
Po
(гПа)
Тmin
(С)
Tmax
(С)
R
(мм)
R24
(мм)
S
(см)
З 1 7000 м дымка ясно +18.0 +14.0 77 +19 +19 1020.0 950.8
СЗ 2 8000 м мгла 1/1 300 м [Cu hum] +29.4 +16.4 45 +32 +32 душно 1011.3 950.6
З 4 9000 м мгла 4/4 300 м [Cu hum] +34.0 +16.4 34 +36 +40 душно 1007.0 947.4
Ю 1 8000 м дымка 1/1 300 м [Cu hum] +25.8 +19.0 65 +31 +51 опасность солнечного удара 1009.6 948.1 +34.3
ЮВ 1 6000 м дымка 10/5 300 м [Cu hum Ac und] +14.0 +14.0 100 +14 +14 1017.0 947.0 +12.5
В 1 7000 м дымка 4/4 300 м [Cu hum] +18.0 +15.0 83 +19 +19 1018.0 948.9
ЮВ 5 9000 м мгла 4/4 300 м [Cu med, cong] +28.0 +19.0 58 +33 +33 очень душно 1014.0 947.5
З 4 9000 м мгла 4/4 300 м [Cu hum] +33.4 +16.6 38 +36 +40 очень душно 1006.1 946.4
Ю 1 8000 м дымка ясно +27.0 +21.8 74 +35 +35 очень душно 1007.8 946.8 +34.5
ЮВ 1 100 м туман, небо не видно ?/? +16.2 +16.2 100 +17 +17 1013.2 949.5 +15.3 499 0.3
В 1 3000 м дымка {туман} 1/1 600 м [Cu hum] +21.6 +17.9 78 +27 +27 душно 1018.7 950.6
З 5 8000 м мгла 4/4 300 м [Cu med, cong] +32.2 +16.2 38 +35 +35 очень душно 1006.3 946.3
З 3 9000 м мгла 4/4 300 м [Cu hum] +33.2 +15.7 36 +36 +40 очень душно 1004.1 944.3
Ю 1 8000 м дымка ясно +28.0 +16.0 48 +31 +52 опасность солнечного удара 1010.0 943.7 +33.7
Ю 1 1000 м дымка 10/10 200 м [St] +16.0 +16.0 100 +17 +17 1013.0 949.3 +14.5
В 1 6000 м дымка ясно +22.0 +18.0 78 +27 +27 душно 1013.0 950.6
Ю 2 7000 м мгла 3/3 600 м [Cu hum] +32.0 +19.0 46 +37 +37 очень душно 1012.0 946.5
З 6 9000 м мгла 3/3 600 м [Cu hum] +34.0 +14.7 32 +36 +39 душно 1005.0 945.4
Ю 1 8000 м дымка ясно +26.2 +18.9 65 +31 +31 очень душно 1007.5 946.3 +34.3
Ю 1 2000 м дымка 8/5 200 м [St Ac trans] +15.0 +15.0 100 +15 +15 1014.3 950.4 +14.2
СЗ 1 6000 м дымка ясно +21.1 +16.3 73 +26 +26 душно 1014.0 951.4
С 1 8000 м мгла 3/3 600 м [Cu hum] +31.9 +17.6 43 +36 +36 очень душно 1008.7 948.4
СЗ 3 9000 м мгла 1/1 600 м [Cu hum] +33.0 +14.0 32 +34 +42 очень жарко 1010.0 944.7
Ю 1 8000 м дымка ясно +24.7 +17.4 61 +29 +29 душно 1008.5 946.2 +33.9
Ю 1 2000 м дымка 6/4 300 м [Cu hum Ac lent] +13.9 +13.9 100 +14 +14 1015.3 951.1 +12.9
ЮВ 1 6000 м дымка 4/4 300 м [Cu hum] +19.4 +14.8 78 +21 +21 комфорт 1015.6 952.7
В 3 8000 м мгла 4/4 300 м [Cu hum] +30.0 +17.4 46 +34 +34 очень душно 1010.0 949.3
З 4 12 км 3/3 300 м [Cu hum] +33.3 +16.6 38 +36 +42 очень душно 1005.5 945.8
Ю 1 8000 м дымка ясно +25.6 +20.1 70 +32 +32 очень душно 1007.8 946.5 +33.8
штиль 0 6000 м дымка 5/4 300 м [St Ac lent] +15.0 +15.0 100 +15 +15 1014.6 950.7 +13.6
З 1 7000 м дымка ясно +21.0 +16.0 73 +26 +26 душно 1017.0 948.7
З 5 8000 м мгла 4/4 600 м [Cu hum Ci fib] +32.0 +11.0 28 +32 +32 жарко 1012.0 946.3
ЮЗ 4 13 км 1/1 600 м [Cu hum] +33.0 +13.1 30 +34 +40 очень жарко 1004.0 944.2
Ю 2 8000 м дымка 4/0 3000 м [Ac lent] +25.5 +17.7 61 +30 +45 душно 1006.1 944.8 +33.4
Ю 1 н/о дымка 5/5 390 м +12.0 +12.0 100 +12 +12 1014.0 943.7
Местоположение метеостанции Луангнамтха (Лаос): широта 20.95 долгота 101.40 высота над уровнем моря 644 м.
В архиве по умолчанию представлена погода в Луангнамтха за последнюю неделю. Архивные данные за месяц целиком и за предыдущие месяцы, начиная с января 2011 года, Вы можете получить, выбрав интересующий диапазон дат из раскрывающегося списка и нажав кнопку "Найти!".
*Определитесь, кто Вы:
Внимание! Время в таблицах - всемирное. Для получения местного времени необходимо прибавить поправку, которая равна 7 ч.
Некоторые строки с данными для отдельных станций могут быть выделены курсивом. Это означает, что фактические данные отсутствуют по различным причинам, а приведенные значения являются расчетными модельными данными для данного пункта наблюдений.
Смотрите также архив погоды в соседних городах и на ближайших метеорологических станциях:
Партнеры нашего сайта:      
Пояснения к столбцам:
  • Ветер - указаны скорость ветра в м/с - средняя за 10 мин, порывы в срок и между сроками (в фигурных скобках) и направление, откуда дует ветер: С - северный,
  • СВ - северо-восточный, В - восточный, ЮВ - юго-восточный, Ю - южный, ЮЗ - юго-западный, З - западный, СЗ - северо-западный.
  • Видимость - горизонтальная дальность видимости в метрах или километрах. При видимости от 1 до 10 км при отсутствии осадков обычно наблюдается дымка, при ухудшении видимости до 1 км и менее - туман. В сухую погоду видимость может ухудшаться дымом, пылью или мглою.
  • Явления - указаны атмосферные явления, наблюдавшиеся в срок или в последний час перед сроком; фигурными скобками обозначены явления, наблюдавшиеся между сроками (за 1-3 часа до срока); квадратными скобками обозначены град или гололедные отложения с указанием их диаметра в мм.
  • Облачность - указаны через наклонную черту общая и нижняя облачность в баллах и высота нижней границы облаков в метрах; квадратными скобками обозначены формы облаков: Ci - перистые, Cs - перисто-слоистые, Cc - перисто-кучевые, Ac - высококучевые, As - высокослоистые, Sc - слоисто-кучевые, Ns - слоисто-дождевые, Cu - кучевые, Cb - кучево-дождевые. Подробнее классификацию облаков см. в Атласе облаков (PDF).
  • T - Температура воздуха - температура, измеренная на высоте 2 м над землей.
  • Td - Температура точки росы - температура, при понижении до которой содержащийся в воздухе водяной пар достигнет насыщения.
  • f - Относительная влажность воздуха - влажноcть воздуха, измеренная на высоте 2 м над землей.
  • Te - Эффективная температура - температура, которую ощущает одетый по сезону человек в тени. Характеристика душности погоды. При расчете учитывается влияние влажности воздуха и скорости ветра на теплоощущения человека.
  • Tes - Эффективная температура на солнце - температура, которую ощущает человек, с поправкой на солнечный нагрев. Характеристика знойности погоды. Зависит от высоты солнца над горизонтом, облачности и скорости ветра. Ночью, в пасмурную погоду, а также при ветре 12 м/с и более поправка равна нулю.
  • P - Атмосферное давление - приведенное к уровню моря атмосферное давление.
  • Po - Атмосферное давление - измеренное на уровне метеостанции атмосферное давление.
  • Tmin - Минимальная температура - минимум температуры воздуха на высоте 2 м над землей.
  • Tmax - Максимальная температура - максимум температуры воздуха на высоте 2 м над землей.
  • R - Количество осадков - Количество выпавших осадков за период времени, мм. При наведении курсора мыши на число - период времени, за который выпало указанное количество осадков.
  • R24 - Количество осадков - Количество выпавших осадков за 24 часа, мм.
  • S - Снежный покров - Высота снежного покрова, см. При наведении курсора мыши на число - состояние снежного покрова и степень покрытия местности в баллах.